Home > Time Zones > World Clock > Weather > Peru > Ica > Past weeks

Flag for Peru Weather past 2 weeks in Ica, Ica, Peru

Now
55 °F

Clear.


Feels Like: 54 °F
Forecast: 60 / 84 °F
Wind: 7 mph from Southeast

Location: Pisco Airport

Current Time: Jul 23, 2014 at 9:02:37 AM

Latest Report: Jul 23, 2014 at 7:00 AM


Visibility: 4 mi

Pressure: 29.95 "Hg

Humidity: 82%

Dew point: 50 °F

Location of IcaLocation

Historic Weather in Ica — Graph

°F

Ica temperature yesterday

Maximum temperature yesterday: 68 °F (at 12:00 PM)
Minimum temperature yesterday: 59 °F (at 12:00 AM)
Average temperature yesterday: 62 °F

Past Weeks' High & Low Weather Summary

 TemperatureHumidityPressure
High70 °F (Jul 9, 3:00 PM)94% (Jul 10, 6:00 AM)30.04 "Hg (Jul 10, 6:00 AM)
Low55 °F (Jul 17, 2:00 AM)64% (Jul 9, 3:00 PM)29.86 "Hg (Jul 11, 3:00 PM)
Average63 °F83%29.96 "Hg
* Reported Jul 8 7:00 AM — Jul 23 7:00 AM, Ica, Weather by CustomWeather, © 2014

Note: Actual official high and low records may vary slightly from our data, if they occured in-between our weather recording intervals... More about our weather records

Advertising

Ica weather history for previous 24 hours

 ConditionsComfort  
Time TempWeatherWind HumidityBarometerVisibility
7:00 AM
Jul 23
55 °FClear.7 mph82%29.95 "Hg4 mi
6:00 AM55 °FClear.7 mph82%29.95 "Hg4 mi
5:00 AM55 °FClear.6 mph82%29.95 "Hg4 mi
4:00 AM57 °FClear.7 mph82%29.92 "Hg4 mi
3:00 AM57 °FClear.7 mph77%29.92 "Hg4 mi
1:00 AM59 °FPassing clouds.5 mph77%29.95 "Hg4 mi
12:00 AM61 °FPassing clouds.3 mph77%29.98 "Hg4 mi
11:00 PM
Jul 22
61 °FPassing clouds.2 mph77%29.98 "Hg4 mi
10:00 PM61 °FClear.5 mph77%29.98 "Hg4 mi
9:00 PM61 °FClear.5 mph83%29.95 "Hg4 mi
8:00 PM64 °FClear.8 mph73%29.95 "Hg4 mi
7:00 PM66 °FHaze.9 mph73%29.92 "Hg3 mi
12:00 PM68 °FMild.8 mph73%29.98 "Hg5 mi
11:00 AM66 °FMild.5 mph73%30.01 "Hg5 mi
10:00 AM64 °FHaze.6 mph78%30.01 "Hg3 mi
9:00 AM63 °FFog.5 mph83%30.01 "Hg3 mi
Weather by CustomWeather, © 2014

See weather overviewHow to use our weather pages